Meteo Giornale » Osservazioni meteo Belgio » Anversa-Deurne

ore: 12:50 - Osservazioni Meteo Anversa-Deurne
Lat. 51° 12' N Lon. 4° 28' E Alt. 12 metri s.l.m.

poco_nuvoloso Europe/Brussels

19 °C

Poco Nuvoloso

Temp. 24 Ore

13 °C

20 °C

Nord/NOvest

16.7 Km/h

Dew point 12 °C

Umidità 63 %

Visibilità  10 Km

Il sole sorge alle ore 07:17

Il sole tramonta alle ore 19:56

Data e Ora Cielo e Fenomeni T °C DP °C Um. % Pres. hPa Vis. km Vento km/h
Oggi h: 12:50 poco_nuvoloso Poco Nuvoloso 19 12 63 1018 10 N/NO 16.7
Oggi h: 12:20 poco_nuvoloso Poco Nuvoloso 20 11 56 1018 10 O/NO 13
Oggi h: 11:50 poco_nuvoloso Poco Nuvoloso 19 12 63 1018 10 O 14.8
Oggi h: 11:20 poco_nuvoloso Poco Nuvoloso 18 11 63 1018 10 O/NO 11.1
Oggi h: 10:50 poco_nuvoloso Poco Nuvoloso 18 13 72 1018 10 O/NO 11.1
Oggi h: 10:20 poco_nuvoloso Poco Nuvoloso 17 13 77 1018 10 O/NO 9.3
Oggi h: 09:50 poco_nuvoloso Poco Nuvoloso 16 13 82 1018 10 O 7.4
Oggi h: 09:20 poco_nuvoloso Poco Nuvoloso 15 12 82 1017 10 O 9.3
Oggi h: 08:50 nuvoloso Nuvoloso 14 12 87 1017 10 O/SO 9.3
Oggi h: 08:20 nuvoloso_piovaschi Debole Rovescio di Pioggia 14 12 87 1017 10 N 3.7
Oggi h: 07:50 molto_nuvoloso Molto Nuvoloso 14 12 87 1017 10 O/SO 9.3
Oggi h: 07:20 molto_nuvoloso Molto Nuvoloso 14 12 87 1017 10 O/SO 9.3
Oggi h: 06:50 molto_nuvoloso Molto Nuvoloso 14 12 87 1017 10 O/SO 9.3
Oggi h: 05:50 coperto Coperto 14 11 82 1016 10 SO 11.1
Oggi h: 05:20 coperto Coperto 13 11 87 1016 10 O/SO 7.4
Oggi h: 04:50 coperto Coperto 13 11 87 1016 10 N 5.5
Oggi h: 04:20 molto_nuvoloso Molto Nuvoloso 13 11 87 1016 10 O/SO 7.4
Oggi h: 03:50 poco_nuvoloso Poco Nuvoloso 13 11 87 1016 10 N 5.5
Oggi h: 03:20 nuvoloso Nuvoloso 13 11 87 1016 10 N 5.5
Oggi h: 02:50 sereno Sereno 13 11 87 1016 10 O 7.4
Oggi h: 02:20 sereno Sereno 13 11 87 1016 10 N 5.5
Oggi h: 01:50 sereno Sereno 13 11 87 1016 10 N 5.5
Oggi h: 01:20 sereno Sereno 14 11 82 1016 10 O/SO 7.4
Oggi h: 00:50 sereno Sereno 14 11 82 1016 10 N 5.5
Oggi h: 00:20 sereno Sereno 14 11 82 1016 10 N 3.7
Ieri h: 23:50 sereno Sereno 14 11 82 1016 10 N 3.7
Ieri h: 23:20 sereno Sereno 15 11 76 1016 10 N 1.8
Ieri h: 22:50 poco_nuvoloso Poco Nuvoloso 15 11 76 1015 10 N/NO 7.4
Ieri h: 22:20 poco_nuvoloso Poco Nuvoloso 15 11 76 1015 10 N 7.4
Ieri h: 21:50 molto_nuvoloso Molto Nuvoloso 16 12 77 1015 10 N/NO 9.3
Ieri h: 21:20 molto_nuvoloso Molto Nuvoloso 17 12 72 1015 10 N/NO 9.3
Ieri h: 20:50 molto_nuvoloso Molto Nuvoloso 17 13 77 1015 10 NO 16.7
Ieri h: 20:20 molto_nuvoloso Molto Nuvoloso 17 12 72 1014 10 NO 18.5
Ieri h: 19:50 molto_nuvoloso Molto Nuvoloso 17 13 77 1014 10 NO 16.7
Ieri h: 19:20 molto_nuvoloso Molto Nuvoloso 18 14 77 1014 10 N/NO 13
Ieri h: 18:50 molto_nuvoloso Molto Nuvoloso 18 14 77 1013 10 NO 20.3
Ieri h: 17:50 molto_nuvoloso Molto Nuvoloso 18 14 77 1013 10 NO 22.2
Ieri h: 17:20 molto_nuvoloso Molto Nuvoloso 19 15 77 1013 10 NO 18.5
Ieri h: 16:50 molto_nuvoloso Molto Nuvoloso 19 15 77 1013 10 O/NO 16.7
Ieri h: 16:20 molto_nuvoloso Molto Nuvoloso 19 15 77 1012 10 O/NO 18.5
Ieri h: 15:50 molto_nuvoloso Molto Nuvoloso 19 15 77 1012 10 O/NO 20.3
Ieri h: 15:20 molto_nuvoloso Molto Nuvoloso 19 14 72 1012 10 O/NO 18.5
Ieri h: 14:50 molto_nuvoloso Molto Nuvoloso 19 15 77 1012 10 O/NO 18.5
Ieri h: 14:20 molto_nuvoloso Molto Nuvoloso 20 15 72 1012 10 O 14.8
Ieri h: 13:50 molto_nuvoloso Molto Nuvoloso 20 15 72 1012 10 O/NO 14.8